Location: Bergnerzell
(49.1816°N, 10.2565°E)
Time: 21:59:37
(UTC+00:00)

SAR-Lupe-1 - Pass Details

Date: 23 May 2024
Orbit: 479 x 482 km, 98.1° (Epoch: 04 May)

Event Time Altitude Azimuth Distance (km) Brightness Sun altitude
Rises 02:31:40 0° 11° (N) 2,553 8.8 -7.7°
Reaches altitude 10° 02:33:45 10° 8° (N) 1,668 7.7 -7.5°
Maximum altitude 02:37:17 63° 288° (WNW) 544 4.2 -7.1°
Drops below altitude 10° 02:40:48 10° 206° (SSW) 1,655 6.2 -6.6°
Enters shadow 02:41:25 - 205° (SSW) 1,911 6.5 -6.6°
